Regional Weather Roundup
Issued by NWS

Home | Current Version | Previous Version | Graphics & Text | Print | Product List | Glossary On
Versions: 1 2 3 4 5 6 7 8 9 10 11 12 13 14 15 16 17 18 19 20 21 22 23 24 25 26 27 28 29 30 31 32 33 34 35 36 37 38 39 40 41 42 43 44 45 46 47 48 49 50
000
ASUS43 KBIS 200802
RWRND

NORTH DAKOTA REGIONAL WEATHER ROUNDUP
NATIONAL WEATHER SERVICE BISMARCK ND
200 AM CST FRI JAN 20 2017

NOTE: "FAIR" INDICATES FEW OR NO CLOUDS BELOW 12,000 FEET WITH NO
SIGNIFICANT WEATHER AND/OR OBSTRUCTIONS TO VISIBILITY.


NDZ001>003-009>011-017-200900-
NORTHWEST NORTH DAKOTA

CITY           SKY/WX    TMP DP  RH WIND       PRES   REMARKS
WILLISTON      FAIR      15  14  95 CALM      29.41F FOG
MINOT          FAIR      22  18  85 S6        29.40S WCI  14
MINOT AFB      CLOUDY    15  12  89 S7        29.39S WCI   5
$$

NDZ018>021-031>035-040>046-200900-
SOUTHWEST NORTH DAKOTA

CITY           SKY/WX    TMP DP  RH WIND       PRES   REMARKS
BISMARCK       FOG       18  17  96 E6        29.45F VSB 1/4 WCI  10
DICKINSON      FAIR      19  14  81 W12       29.36F WCI   7
GARRISON         N/A     10   7  87 CALM      29.41S
HETTINGER ARPT CLOUDY    22  17  81 NW6       29.40F WCI  14
$$

NDZ004>008-012>016-024-026-027-054-200900-
NORTHEAST NORTH DAKOTA

CITY           SKY/WX    TMP DP  RH WIND       PRES   REMARKS
GRAND FORKS    CLOUDY    35  33  92 S8        29.54S FOG
GRND FRKS AFB  CLOUDY    34  32  93 S9        29.53S FOG
DEVILS LAKE    FOG       27  26  96 S12       29.49S VSB 1   WCI  17
$$

NDZ022-023-025-028>030-036>039-047>053-200900-
SOUTHEAST NORTH DAKOTA

CITY           SKY/WX    TMP DP  RH WIND       PRES   REMARKS
FARGO          CLOUDY    49  35  58 S13       29.56R HAZE
JAMESTOWN      FOG       33  33 100 SE8       29.48S VSB 1/2
$$





USA.gov is the U.S. government's official web portal to all federal, state and local government web resources and services.